When you browse on this site, cookies collect data to enhance your experience and personalize the content and advertising you see.
Visit our Privacy Policy to learn more. By continuing to use the site, you agree to this use of cookies and data.

Stündliche Wetter Gendringen

Heute, 25 September, Freitag

Zeit Temperatur Niederschläge Wind Luftdruck Luftfeuchtigkeit
00:00 +12°C° 0.9 mm 3 m/S 745 mmHg 93%
01:00 +12°C° 0.6 mm 3 m/S 745 mmHg 92%
02:00 +11°C° 0.6 mm 4 m/S 745 mmHg 90%
03:00 +11°C° 0.6 mm 4 m/S 745 mmHg 89%
04:00 +10°C° 0 mm 4 m/S 745 mmHg 89%
05:00 +10°C° 0 mm 4 m/S 745 mmHg 88%
06:00 +8°C° 0 mm 5 m/S 745 mmHg 88%
07:00 +9°C° 0 mm 5 m/S 745 mmHg 82%
08:00 +10°C° 0 mm 5 m/S 745 mmHg 76%
09:00 +12°C° 0 mm 5 m/S 746 mmHg 69%
10:00 +12°C° 0.1 mm 5 m/S 745 mmHg 66%
11:00 +13°C° 0.1 mm 5 m/S 745 mmHg 64%
12:00 +14°C° 0.1 mm 5 m/S 745 mmHg 61%
13:00 +14°C° 0.1 mm 5 m/S 745 mmHg 60%
14:00 +14°C° 0.1 mm 5 m/S 744 mmHg 59%
15:00 +14°C° 0.1 mm 5 m/S 744 mmHg 58%
16:00 +13°C° 0 mm 4 m/S 744 mmHg 65%
17:00 +12°C° 0 mm 3 m/S 744 mmHg 71%
18:00 +10°C° 0 mm 2 m/S 744 mmHg 78%
19:00 +9°C° 0 mm 2 m/S 744 mmHg 82%
20:00 +9°C° 0 mm 2 m/S 745 mmHg 86%
21:00 +9°C° 0 mm 1 m/S 745 mmHg 90%
22:00 +8°C° 0 mm 1 m/S 745 mmHg 91%
23:00 +8°C° 0 mm 1 m/S 745 mmHg 91%

Morgen, 26 September, Samstag

Zeit Temperatur Niederschläge Wind Luftdruck Luftfeuchtigkeit
00:00 +8°C° 0 mm 1 m/S 745 mmHg 92%
01:00 +8°C° 0 mm 1 m/S 745 mmHg 92%
02:00 +7°C° 0 mm 1 m/S 746 mmHg 93%
03:00 +6°C° 0 mm 2 m/S 746 mmHg 93%
04:00 +6°C° 0 mm 2 m/S 746 mmHg 93%
05:00 +6°C° 0 mm 2 m/S 747 mmHg 93%
06:00 +7°C° 0 mm 2 m/S 747 mmHg 92%
07:00 +9°C° 0 mm 2 m/S 747 mmHg 85%
08:00 +10°C° 0 mm 2 m/S 748 mmHg 77%
09:00 +12°C° 0 mm 3 m/S 748 mmHg 69%
10:00 +13°C° 0 mm 3 m/S 748 mmHg 65%
11:00 +14°C° 0 mm 4 m/S 748 mmHg 61%
12:00 +15°C° 0 mm 4 m/S 748 mmHg 57%
13:00 +15°C° 0.1 mm 4 m/S 748 mmHg 61%
14:00 +14°C° 0.1 mm 4 m/S 748 mmHg 65%
15:00 +14°C° 0.1 mm 5 m/S 748 mmHg 69%
16:00 +13°C° 1.1 mm 5 m/S 748 mmHg 77%
17:00 +13°C° 1.1 mm 5 m/S 748 mmHg 84%
18:00 +12°C° 1.1 mm 5 m/S 748 mmHg 91%
19:00 +11°C° 0.4 mm 6 m/S 747 mmHg 90%
20:00 +11°C° 0.4 mm 6 m/S 747 mmHg 90%
21:00 +11°C° 0.4 mm 6 m/S 747 mmHg 89%
22:00 +11°C° 3.1 mm 7 m/S 746 mmHg 91%
23:00 +11°C° 3.1 mm 7 m/S 746 mmHg 92%

übermorgen, 27 September, Sonntag

Zeit Temperatur Niederschläge Wind Luftdruck Luftfeuchtigkeit
00:00 +11°C° 3.1 mm 7 m/S 745 mmHg 94%
01:00 +11°C° 0.4 mm 7 m/S 745 mmHg 94%
02:00 +12°C° 0.4 mm 7 m/S 744 mmHg 94%
03:00 +14°C° 0.4 mm 6 m/S 744 mmHg 94%
04:00 +13°C° 0.1 mm 6 m/S 745 mmHg 92%
05:00 +11°C° 0.1 mm 6 m/S 745 mmHg 91%
06:00 +10°C° 0.1 mm 6 m/S 745 mmHg 89%
07:00 +10°C° 0 mm 6 m/S 746 mmHg 88%
08:00 +9°C° 0 mm 6 m/S 747 mmHg 86%
09:00 +9°C° 0 mm 6 m/S 747 mmHg 84%
10:00 +10°C° 0 mm 5 m/S 748 mmHg 81%
11:00 +12°C° 0 mm 5 m/S 748 mmHg 79%
12:00 +12°C° 0 mm 5 m/S 749 mmHg 76%
13:00 +13°C° 0 mm 4 m/S 749 mmHg 75%
14:00 +13°C° 0 mm 4 m/S 750 mmHg 74%
15:00 +13°C° 0 mm 3 m/S 750 mmHg 73%
16:00 +12°C° 0 mm 3 m/S 750 mmHg 76%
17:00 +13°C° 0 mm 2 m/S 751 mmHg 79%
18:00 +12°C° 0 mm 2 m/S 751 mmHg 81%
19:00 +12°C° 0.1 mm 2 m/S 751 mmHg 84%
20:00 +12°C° 0.1 mm 2 m/S 752 mmHg 88%
21:00 +12°C° 0.1 mm 2 m/S 752 mmHg 91%
22:00 +13°C° 0.1 mm 2 m/S 752 mmHg 93%
23:00 +13°C° 0.1 mm 2 m/S 752 mmHg 94%

28 September, Montag

Zeit Temperatur Niederschläge Wind Luftdruck Luftfeuchtigkeit
00:00 +13°C° 0.1 mm 2 m/S 752 mmHg 96%
01:00 +14°C° 0.1 mm 2 m/S 752 mmHg 96%
02:00 +14°C° 0.1 mm 2 m/S 752 mmHg 96%
03:00 +14°C° 0.1 mm 2 m/S 752 mmHg 97%
04:00 +14°C° 0 mm 2 m/S 752 mmHg 97%
05:00 +14°C° 0 mm 2 m/S 753 mmHg 97%
06:00 +14°C° 0 mm 2 m/S 753 mmHg 97%
07:00 +16°C° 0 mm 2 m/S 753 mmHg 93%
08:00 +17°C° 0 mm 2 m/S 753 mmHg 88%
09:00 +18°C° 0 mm 3 m/S 753 mmHg 84%
10:00 +19°C° 0.1 mm 3 m/S 754 mmHg 83%
11:00 +19°C° 0.1 mm 4 m/S 754 mmHg 82%
12:00 +20°C° 0.1 mm 5 m/S 754 mmHg 81%
13:00 +19°C° 0 mm 5 m/S 754 mmHg 82%
14:00 +19°C° 0 mm 5 m/S 754 mmHg 83%
15:00 +17°C° 0 mm 5 m/S 755 mmHg 84%
16:00 +17°C° 0 mm 5 m/S 755 mmHg 85%
17:00 +17°C° 0 mm 4 m/S 756 mmHg 86%
18:00 +17°C° 0 mm 4 m/S 756 mmHg 87%
19:00 +17°C° 0 mm 4 m/S 756 mmHg 88%
20:00 +15°C° 0 mm 4 m/S 757 mmHg 89%
21:00 +15°C° 0 mm 5 m/S 757 mmHg 90%
22:00 +15°C° 0.1 mm 5 m/S 757 mmHg 87%
23:00 +14°C° 0.1 mm 5 m/S 758 mmHg 83%

29 September, Dienstag

Zeit Temperatur Niederschläge Wind Luftdruck Luftfeuchtigkeit
00:00 +14°C° 0.1 mm 4 m/S 758 mmHg 80%
01:00 +13°C° 0.1 mm 4 m/S 758 mmHg 80%
02:00 +12°C° 0.1 mm 3 m/S 758 mmHg 79%
03:00 +11°C° 0.1 mm 3 m/S 758 mmHg 79%
04:00 +11°C° 0 mm 3 m/S 758 mmHg 84%
05:00 +11°C° 0 mm 3 m/S 759 mmHg 89%
06:00 +11°C° 0 mm 3 m/S 759 mmHg 95%
07:00 +13°C° 0 mm 3 m/S 759 mmHg 92%
08:00 +16°C° 0 mm 3 m/S 759 mmHg 89%
09:00 +17°C° 0 mm 4 m/S 759 mmHg 86%
10:00 +18°C° 0.3 mm 4 m/S 759 mmHg 84%
11:00 +18°C° 0.3 mm 4 m/S 760 mmHg 81%
12:00 +19°C° 0.3 mm 4 m/S 760 mmHg 79%
13:00 +19°C° 0.6 mm 4 m/S 759 mmHg 80%
14:00 +19°C° 0.6 mm 4 m/S 759 mmHg 81%
15:00 +18°C° 0.6 mm 4 m/S 759 mmHg 83%
16:00 +17°C° 0.1 mm 3 m/S 759 mmHg 86%
17:00 +16°C° 0.1 mm 3 m/S 759 mmHg 90%
18:00 +15°C° 0.1 mm 2 m/S 759 mmHg 93%
19:00 +15°C° 0.1 mm 2 m/S 760 mmHg 94%
20:00 +15°C° 0.1 mm 2 m/S 760 mmHg 94%
21:00 +15°C° 0.1 mm 1 m/S 760 mmHg 94%
22:00 +15°C° 0.1 mm 1 m/S 760 mmHg 95%
23:00 +15°C° 0.1 mm 1 m/S 759 mmHg 95%

30 September, Mittwoch

Zeit Temperatur Niederschläge Wind Luftdruck Luftfeuchtigkeit
00:00 +15°C° 0.1 mm 1 m/S 759 mmHg 96%
01:00 +14°C° 0 mm 2 m/S 759 mmHg 96%
02:00 +14°C° 0 mm 2 m/S 758 mmHg 96%
03:00 +14°C° 0 mm 2 m/S 758 mmHg 96%
04:00 +13°C° 0 mm 2 m/S 758 mmHg 95%
05:00 +13°C° 0 mm 2 m/S 758 mmHg 95%
06:00 +12°C° 0 mm 3 m/S 757 mmHg 95%
07:00 +13°C° 0 mm 3 m/S 757 mmHg 90%
08:00 +14°C° 0 mm 3 m/S 757 mmHg 85%
09:00 +17°C° 0 mm 4 m/S 757 mmHg 81%
10:00 +17°C° 0 mm 4 m/S 757 mmHg 77%
11:00 +18°C° 0 mm 4 m/S 756 mmHg 73%
12:00 +19°C° 0 mm 4 m/S 756 mmHg 69%
13:00 +19°C° 0 mm 4 m/S 756 mmHg 69%
14:00 +19°C° 0 mm 3 m/S 755 mmHg 69%
15:00 +19°C° 0 mm 3 m/S 755 mmHg 69%
16:00 +18°C° 0 mm 3 m/S 755 mmHg 74%
17:00 +17°C° 0 mm 2 m/S 754 mmHg 78%
18:00 +15°C° 0 mm 2 m/S 754 mmHg 83%
19:00 +15°C° 0 mm 2 m/S 754 mmHg 84%
20:00 +15°C° 0 mm 2 m/S 754 mmHg 85%
21:00 +13°C° 0 mm 3 m/S 754 mmHg 86%
22:00 +13°C° 0 mm 3 m/S 753 mmHg 86%
23:00 +13°C° 0 mm 3 m/S 752 mmHg 87%
Mehr zeigen